Location: Unspecified
(0.0000°N, 0.0000°E)
Time: 11:30:02
(UTC+00:00)

A-11 Canister half - Pass Details

Date: 21 November 2019
Orbit: 1515 x 1685 km, 47.2° (Epoch: 08 December)

Event Time Altitude Azimuth Distance (km) Brightness Sun altitude
Rises 14:58:35 0° 235° (SW) 4,743 12.5 38.8°
Reaches altitude 10° 15:01:49 10° 241° (WSW) 3,781 12.3 38.1°
Maximum altitude 15:10:50 45° 310° (NW) 2,095 10.5 36.0°
Drops below altitude 10° 15:20:10 10° 20° (NNE) 3,895 10.9 33.9°
Sets 15:23:35 0° 27° (NNE) 4,898 11.2 33.1°
